Simultaneous Nadir Overpasses (SNOs) Predictions

Prediction of SNOs between FY3D and NOAA-19 Satellite Orbit:

Table of predicted SNOs for the next 14.0 days since TLE Epoch: 4/6/2024
Index Date (FY3D) Time (FY3D) Lat,Lon (FY3D) SZA (FY3D ) Date (NOAA-19) Time (NOAA-19) Lat,Lon (NOAA-19) SZA (NOAA-19 ) Distance(km) Time Diff (sec)
1 04/15/2024 02:06:34 75.98, 146.41 66.01 04/15/2024 02:05:21 75.99, 145.57 66.03 22.52 73
2 04/15/2024 02:57:21 -76.10, -46.71 113.88 04/15/2024 02:56:17 -76.13, -46.67 113.85 3.18 64
3 04/15/2024 03:48:08 76.12, 120.53 66.13 04/15/2024 03:47:16 76.13, 120.60 66.15 2.39 52
4 04/15/2024 04:38:52 -76.11, -72.11 113.90 04/15/2024 04:38:15 -76.14, -72.12 113.87 3.56 37
5 04/15/2024 05:29:39 76.12, 95.14 66.11 04/15/2024 05:29:14 76.14, 95.15 66.13 1.94 25
6 04/15/2024 06:20:24 -76.16, -97.66 113.87 04/15/2024 06:20:13 -76.15, -97.58 113.88 2.45 11
7 04/15/2024 07:11:10 76.13, 69.74 66.09 04/15/2024 07:11:12 76.15, 69.69 66.11 2.80 2
8 04/15/2024 08:01:55 -76.16,-123.06 113.89 04/15/2024 08:02:11 -76.16,-123.03 113.90 0.76 16
9 04/15/2024 08:52:42 76.18, 44.18 66.12 04/15/2024 08:53:10 76.16, 44.23 66.10 2.46 28
10 04/15/2024 09:43:26 -76.16,-148.45 113.91 04/15/2024 09:44:09 -76.17,-148.48 113.91 0.93 43
11 04/15/2024 10:34:13 76.18, 18.79 66.10 04/15/2024 10:35:08 76.17, 18.78 66.08 1.69 55
12 04/15/2024 11:24:57 -76.17,-173.84 113.93 04/15/2024 11:26:07 -76.18,-173.94 113.93 2.62 70
13 04/15/2024 12:15:51 76.50, -7.77 66.41 04/15/2024 12:17:00 76.44, -5.67 66.32 55.10 69



Historial Predications of SNOs between FY3D and NOAA-19
